Погода в Гандии

Испания     38°57′42″N   0°11′10″E
темп.,
°C
ветер,
м/с
пор.,
м/с
влажн.,
%
обл.,
%
осадки,
мм/ч
давл.,
гПа
погр.,
м
6 марта, сб
сб601:00+8з119587 0.0 102023
04:00+8зюз129794 0.0 102026
07:00+8зюз119688 0.0 102125
10:00+12ссв237854 0.0 1022561
13:00+14всв446664 0.1 1023877
16:00+14всв446984 0.0 1021776
19:00+10всв228862 0.0 102160
22:00+9в119448 0.0 102329
7 марта, вс
вс701:00+9ссз129673 0.1 102245
04:00+9ссз1296100 0.2 1020121
07:00+10ссз1295100 0.6 1020111
10:00+11ссв3692100 0.6 1020454
13:00+10св1296100 10.3 1019196
16:00+10ссв1296100 8.9 1017216
19:00+9с1297100 11.6 1016161
22:00+9зсз2297100 2.3 1017142
8 марта, пн
пн801:00+9сз1296100 4.1 1015149
04:00+9зсз2294100 0.4 1014160
07:00+8з229398 0.5 101453
10:00+11зсз228165 0.0 1016427
13:00+14ссв337174 0.4 1016802
16:00+12св458176 0.6 1014685
19:00+10всв239187 1.4 1015301
22:00+10ссв1293100 0.4 101799
9 марта, вт
вт901:00+9зюз1195100 0.5 101830
04:00+8з229798 0.0 101733
07:00+8зюз129492 0.1 101726
10:00+12з117444 0.0 1019434
13:00+15в226028 0.2 10191004
16:00+14вюв446617 0.9 1017732
19:00+11вюв238212 1.1 101896
22:00+10ю22854 0.0 102130
10 марта, ср
ср1001:00+9з228828 0.0 102138
04:00+9зюз228954 0.0 102130
07:00+8зюз229030 0.0 102231
10:00+13с22712 0.0 1023465
13:00+14всв436819 0.1 1023678
16:00+13в336538 0.0 1022481
19:00+10вюв228219 0.0 102354
22:00+8ю11900 0.0 102634